| time (UTC) | temp F | wind direction | speed knots | gust knots | rain 1hr in | rain 24hr in | rain mn in | humidity % | barometer mb |
| 20260503072003 | 67 | 306 | 0.0 | 0.0 | 0.00 | 0.00 | 0.00 | 54 | 1019.5 |
| 20260503054504 | 57 | 292 | 0.0 | 2.6 | 0.00 | 0.00 | 0.00 | 68 | 1019.4 |
| 20260503053503 | 57 | 290 | 1.7 | 2.6 | 0.00 | 0.00 | 0.00 | 69 | 1019.4 |
| 20260503053004 | 57 | 281 | 0.9 | 1.7 | 0.00 | 0.00 | 0.00 | 69 | 1019.4 |
| 20260503051004 | 55 | 281 | 0.9 | 1.7 | 0.00 | 0.00 | 0.00 | 70 | 1019.2 |
| 20260503050504 | 55 | 281 | 0.0 | 1.7 | 0.00 | 0.00 | 0.00 | 70 | 1019.2 |
| 20260503050003 | 55 | 281 | 0.9 | 1.7 | 0.00 | 0.00 | 0.00 | 71 | 1019.2 |
| 20260503043503 | 54 | 279 | 0.0 | 0.9 | 0.00 | 0.00 | 0.00 | 73 | 1019.2 |
| 20260503043004 | 54 | 278 | 0.0 | 0.9 | 0.00 | 0.00 | 0.00 | 72 | 1019.2 |
| 20260503042503 | 54 | 278 | 0.0 | 0.0 | 0.00 | 0.00 | 0.00 | 72 | 1019.2 |
| 20260503041504 | 54 | 278 | 0.0 | 0.0 | 0.00 | 0.00 | 0.00 | 72 | 1019.1 |
| 20260503041003 | 54 | 279 | 0.0 | 0.0 | 0.00 | 0.00 | 0.00 | 72 | 1019.0 |
| 20260503040504 | 54 | 278 | 0.0 | 0.0 | 0.00 | 0.00 | 0.00 | 72 | 1019.0 |
| 20260503035004 | 54 | 279 | 0.0 | 0.0 | 0.00 | 0.00 | 0.00 | 71 | 1019.1 |
| 20260503034503 | 55 | 279 | 0.0 | 0.0 | 0.00 | 0.00 | 0.00 | 71 | 1019.1 |
| 20260503034004 | 55 | 278 | 0.0 | 0.0 | 0.00 | 0.00 | 0.00 | 71 | 1019.1 |
| 20260503033504 | 55 | 279 | 0.0 | 0.0 | 0.00 | 0.00 | 0.00 | 70 | 1019.1 |
| 20260503032504 | 56 | 279 | 0.0 | 0.0 | 0.00 | 0.00 | 0.00 | 69 | 1019.1 |
| 20260503031503 | 56 | 278 | 0.0 | 0.0 | 0.00 | 0.00 | 0.00 | 69 | 1019.2 |
| 20260503030504 | 56 | 279 | 0.0 | 0.0 | 0.00 | 0.00 | 0.00 | 69 | 1019.2 |
| 20260503030004 | 56 | 278 | 0.0 | 0.0 | 0.00 | 0.00 | 0.00 | 68 | 1019.2 |
| 20260503024503 | 56 | 278 | 0.0 | 0.0 | 0.00 | 0.00 | 0.00 | 68 | 1019.2 |
| 20260503021003 | 56 | 279 | 0.0 | 0.0 | 0.00 | 0.00 | 0.00 | 66 | 1019.3 |
| 20260503020503 | 57 | 278 | 0.0 | 0.0 | 0.00 | 0.00 | 0.00 | 66 | 1019.4 |
| 20260503013503 | 57 | 278 | 0.0 | 0.0 | 0.00 | 0.00 | 0.00 | 65 | 1019.4 |
| 20260503012504 | 57 | 278 | 0.0 | 0.0 | 0.00 | 0.00 | 0.00 | 65 | 1019.5 |
| 20260503012003 | 57 | 278 | 0.0 | 0.0 | 0.00 | 0.00 | 0.00 | 64 | 1019.4 |
| 20260503011503 | 57 | 278 | 0.0 | 0.0 | 0.00 | 0.00 | 0.00 | 64 | 1019.4 |
| 20260503010504 | 58 | 278 | 0.9 | 1.7 | 0.00 | 0.00 | 0.00 | 63 | 1019.4 |
| 20260503005504 | 58 | 278 | 0.0 | 1.7 | 0.00 | 0.00 | 0.00 | 63 | 1019.5 |
| 20260503004504 | 58 | 278 | 0.0 | 1.7 | 0.00 | 0.00 | 0.00 | 63 | 1019.6 |
| 20260503003503 | 58 | 278 | 0.0 | 0.9 | 0.00 | 0.00 | 0.00 | 62 | 1019.7 |
| 20260503003004 | 58 | 278 | 0.0 | 0.9 | 0.00 | 0.00 | 0.00 | 62 | 1019.7 |
| 20260503002003 | 58 | 277 | 0.0 | 1.7 | 0.00 | 0.00 | 0.00 | 61 | 1019.9 |
| 20260503001503 | 59 | 277 | 0.0 | 1.7 | 0.00 | 0.00 | 0.00 | 61 | 1019.9 |
| 20260503001003 | 59 | 277 | 0.0 | 1.7 | 0.00 | 0.00 | 0.00 | 61 | 1020.0 |
| 20260502235503 | 59 | 274 | 0.0 | 1.7 | 0.00 | 0.00 | 0.00 | 60 | 1020.1 |
| 20260502234003 | 60 | 274 | 0.0 | 0.9 | 0.00 | 0.00 | 0.00 | 58 | 1020.3 |
| 20260502233503 | 60 | 274 | 0.0 | 1.7 | 0.00 | 0.00 | 0.00 | 58 | 1020.3 |
| 20260502233003 | 60 | 274 | 0.0 | 0.9 | 0.00 | 0.00 | 0.00 | 57 | 1020.4 |
| 20260502232503 | 60 | 274 | 0.0 | 0.9 | 0.00 | 0.00 | 0.00 | 57 | 1020.4 |
| 20260502232003 | 60 | 274 | 0.0 | 2.6 | 0.00 | 0.00 | 0.00 | 56 | 1020.3 |
| 20260502230503 | 61 | 274 | 0.0 | 1.7 | 0.00 | 0.00 | 0.00 | 54 | 1020.4 |
| 20260502230003 | 61 | 274 | 0.0 | 0.0 | 0.00 | 0.00 | 0.00 | 53 | 1020.5 |
| 20260502225503 | 61 | 274 | 0.0 | 1.7 | 0.00 | 0.00 | 0.00 | 52 | 1020.5 |
| 20260502224503 | 62 | 274 | 0.0 | 1.7 | 0.00 | 0.00 | 0.00 | 51 | 1020.5 |
| 20260502224003 | 62 | 274 | 0.0 | 1.7 | 0.00 | 0.00 | 0.00 | 51 | 1020.4 |
| 20260502222503 | 62 | 274 | 1.7 | 2.6 | 0.00 | 0.00 | 0.00 | 50 | 1020.6 |
| 20260502222003 | 62 | 226 | 0.0 | 1.7 | 0.00 | 0.00 | 0.00 | 52 | 1020.6 |
| 20260502221504 | 62 | 226 | 0.0 | 1.7 | 0.00 | 0.00 | 0.00 | 53 | 1020.6 |
| 20260502220003 | 66 | 225 | 0.0 | 0.0 | 0.00 | 0.00 | 0.00 | 47 | 1020.5 |
| 20260502215503 | 66 | 225 | 0.0 | 0.0 | 0.00 | 0.00 | 0.00 | 43 | 1020.5 |
| 20260502215003 | 66 | 225 | 0.0 | 0.0 | 0.00 | 0.00 | 0.00 | 44 | 1020.5 |
| 20260502214004 | 67 | 225 | 0.0 | 0.0 | 0.00 | 0.00 | 0.00 | 42 | 1020.4 |
| 20260502213504 | 67 | 225 | 0.0 | 0.0 | 0.00 | 0.00 | 0.00 | 42 | 1020.4 |
| 20260502213004 | 67 | 225 | 0.0 | 0.0 | 0.00 | 0.00 | 0.00 | 40 | 1020.4 |
| 20260502212504 | 67 | 225 | 0.0 | 0.0 | 0.00 | 0.00 | 0.00 | 40 | 1020.4 |
| 20260502212004 | 67 | 225 | 0.0 | 0.0 | 0.00 | 0.00 | 0.00 | 42 | 1020.4 |
| 20260502210503 | 68 | 225 | 0.0 | 0.0 | 0.00 | 0.00 | 0.00 | 38 | 1020.4 |
| 20260502210004 | 68 | 225 | 0.0 | 0.0 | 0.00 | 0.00 | 0.00 | 38 | 1020.5 |
| 20260502205504 | 68 | 225 | 0.0 | 0.0 | 0.00 | 0.00 | 0.00 | 38 | 1020.5 |
| 20260502205003 | 68 | 225 | 0.0 | 0.0 | 0.00 | 0.00 | 0.00 | 39 | 1020.4 |
| 20260502203003 | 69 | 225 | 0.0 | 0.0 | 0.00 | 0.00 | 0.00 | 39 | 1020.5 |
| 20260502202003 | 69 | 225 | 0.9 | 1.7 | 0.00 | 0.00 | 0.00 | 37 | 1020.4 |
| 20260502201503 | 68 | 225 | 1.7 | 2.6 | 0.00 | 0.00 | 0.00 | 40 | 1020.4 |
| 20260502201004 | 70 | 225 | 1.7 | 4.3 | 0.00 | 0.00 | 0.00 | 40 | 1020.4 |
| 20260502195504 | 71 | 245 | 0.0 | 0.0 | 0.00 | 0.00 | 0.00 | 34 | 1020.4 |
| 20260502194003 | 70 | 245 | 0.0 | 0.0 | 0.00 | 0.00 | 0.00 | 35 | 1020.3 |
| 20260502191504 | 71 | 245 | 0.0 | 0.0 | 0.00 | 0.00 | 0.00 | 35 | 1020.3 |
| 20260502190504 | 72 | 245 | 0.0 | 0.0 | 0.00 | 0.00 | 0.00 | 36 | 1020.2 |
| 20260502185504 | 72 | 245 | 0.0 | 0.0 | 0.00 | 0.00 | 0.00 | 32 | 1020.1 |
| 20260502184004 | 73 | 245 | 0.0 | 0.0 | 0.00 | 0.00 | 0.00 | 32 | 1020.0 |
| 20260502183503 | 73 | 245 | 0.0 | 0.0 | 0.00 | 0.00 | 0.00 | 31 | 1020.0 |
| 20260502182503 | 74 | 245 | 0.0 | 0.0 | 0.00 | 0.00 | 0.00 | 30 | 1020.0 |
| 20260502182003 | 74 | 245 | 0.0 | 0.0 | 0.00 | 0.00 | 0.00 | 29 | 1020.0 |
| 20260502181504 | 74 | 245 | 0.0 | 0.0 | 0.00 | 0.00 | 0.00 | 29 | 1019.9 |
| 20260502181004 | 74 | 245 | 0.0 | 0.0 | 0.00 | 0.00 | 0.00 | 29 | 1019.8 |
| 20260502170504 | 76 | 245 | 2.6 | 2.6 | 0.00 | 0.00 | 0.00 | 27 | 1019.9 |
| 20260502163504 | 78 | 243 | 0.0 | 0.0 | 0.00 | 0.00 | 0.00 | 26 | 1020.1 |
| 20260502163004 | 77 | 243 | 0.9 | 2.6 | 0.00 | 0.00 | 0.00 | 26 | 1020.2 |
| 20260502130503 | 73 | 175 | 0.0 | 4.3 | 0.00 | 0.00 | 0.00 | 29 | 1022.8 |
| 20260502123504 | 74 | 321 | 0.9 | 2.6 | 0.00 | 0.00 | 0.00 | 28 | 1023.3 |
| 20260502123003 | 73 | 293 | 0.9 | 4.3 | 0.00 | 0.00 | 0.00 | 29 | 1023.4 |
| 20260502122503 | 73 | 261 | 0.9 | 4.3 | 0.00 | 0.00 | 0.00 | 29 | 1023.4 |
| 20260502122004 | 72 | 318 | 2.6 | 5.2 | 0.00 | 0.00 | 0.00 | 29 | 1023.5 |
| 20260502115504 | 72 | 222 | 1.7 | 4.3 | 0.00 | 0.00 | 0.00 | 29 | 1023.7 |
| 20260502114003 | 71 | 253 | 1.7 | 4.3 | 0.00 | 0.00 | 0.00 | 31 | 1024.1 |
| 20260502112504 | 71 | 225 | 2.6 | 6.1 | 0.00 | 0.00 | 0.00 | 31 | 1024.2 |
| 20260502112004 | 73 | 212 | 1.7 | 2.6 | 0.00 | 0.00 | 0.00 | 30 | 1024.3 |
| 20260502110504 | 72 | 168 | 0.9 | 4.3 | 0.00 | 0.00 | 0.00 | 30 | 1024.5 |
| 20260502110004 | 72 | 191 | 0.9 | 2.6 | 0.00 | 0.00 | 0.00 | 32 | 1024.6 |
| 20260502101503 | 70 | 170 | 0.9 | 4.3 | 0.00 | 0.00 | 0.00 | 31 | 1025.3 |
| 20260502101003 | 70 | 179 | 0.9 | 2.6 | 0.00 | 0.00 | 0.00 | 34 | 1025.4 |